Time,TemperatureF,DewpointF,PressureIn,WindDirection,WindDirectionDegrees,WindSpeedMPH,WindSpeedGustMPH,Humidity,HourlyPrecipIn,Conditions,Clouds,dailyrainin,SoftwareType,DateUTC
2013-03-08 00:01:00,31.0,26.0,30.41,ESE,111,0.0,0.0,80,0.00,,,0.00,,2013-03-08 06:01:00,
2013-03-08 00:11:00,31.0,26.0,30.41,ESE,111,0.0,0.0,80,0.00,,,0.00,,2013-03-08 06:11:00,
2013-03-08 00:21:00,31.0,26.0,30.41,ESE,111,0.0,0.0,80,0.00,,,0.00,,2013-03-08 06:21:00,
2013-03-08 00:32:00,31.0,26.0,30.41,ESE,111,0.0,0.0,80,0.00,,,0.00,,2013-03-08 06:32:00,
2013-03-08 00:42:00,31.0,26.0,30.41,ESE,111,0.0,0.0,80,0.00,,,0.00,,2013-03-08 06:42:00,
2013-03-08 00:52:00,30.0,25.0,30.42,ESE,111,0.0,0.0,80,0.00,,,0.00,,2013-03-08 06:52:00,
2013-03-08 01:01:00,30.0,25.0,30.42,ESE,111,0.0,0.0,80,0.00,,,0.00,,2013-03-08 07:01:00,
2013-03-08 01:11:00,30.0,25.0,30.42,ESE,111,0.0,0.0,80,0.00,,,0.00,,2013-03-08 07:11:00,
2013-03-08 01:22:00,30.0,25.0,30.42,ESE,111,0.0,0.0,80,0.00,,,0.00,,2013-03-08 07:22:00,
2013-03-08 01:31:00,30.0,25.0,30.43,ESE,111,0.0,0.0,81,0.00,,,0.00,,2013-03-08 07:31:00,
2013-03-08 01:42:00,30.0,25.0,30.43,ESE,111,0.0,0.0,81,0.00,,,0.00,,2013-03-08 07:42:00,
2013-03-08 01:52:00,30.0,25.0,30.43,ESE,111,0.0,0.0,80,0.00,,,0.00,,2013-03-08 07:52:00,
2013-03-08 02:01:00,30.0,25.0,30.43,ESE,111,0.0,0.0,80,0.00,,,0.00,,2013-03-08 08:01:00,
2013-03-08 02:11:00,30.0,25.0,30.43,ESE,111,0.0,0.0,80,0.00,,,0.00,,2013-03-08 08:11:00,
2013-03-08 02:21:00,30.0,25.0,30.42,ESE,111,0.0,0.0,81,0.00,,,0.00,,2013-03-08 08:21:00,
2013-03-08 02:31:00,30.0,25.0,30.42,ESE,111,0.0,0.0,81,0.00,,,0.00,,2013-03-08 08:31:00,
2013-03-08 02:41:00,30.0,25.0,30.42,ESE,111,0.0,0.0,81,0.00,,,0.00,,2013-03-08 08:41:00,
2013-03-08 02:52:00,30.0,25.0,30.42,ESE,111,0.0,0.0,81,0.00,,,0.00,,2013-03-08 08:52:00,
2013-03-08 03:03:00,30.0,25.0,30.42,ESE,111,0.0,0.0,81,0.00,,,0.00,,2013-03-08 09:03:00,
2013-03-08 03:11:00,30.0,25.0,30.42,ESE,111,0.0,0.0,81,0.00,,,0.00,,2013-03-08 09:11:00,
2013-03-08 03:21:00,29.0,24.0,30.42,ESE,111,0.0,0.0,80,0.00,,,0.00,,2013-03-08 09:21:00,
2013-03-08 03:32:00,28.0,23.0,30.42,ESE,111,0.0,0.0,80,0.00,,,0.00,,2013-03-08 09:32:00,
2013-03-08 03:42:00,28.0,23.0,30.42,ESE,111,0.0,0.0,80,0.00,,,0.00,,2013-03-08 09:42:00,
2013-03-08 03:52:00,28.0,23.0,30.42,ESE,111,0.0,0.0,82,0.00,,,0.00,,2013-03-08 09:52:00,
2013-03-08 04:01:00,28.0,24.0,30.42,ESE,111,0.0,0.0,83,0.00,,,0.00,,2013-03-08 10:01:00,
2013-03-08 04:11:00,28.0,24.0,30.42,ESE,111,0.0,0.0,83,0.00,,,0.00,,2013-03-08 10:11:00,
2013-03-08 04:21:00,29.0,24.0,30.43,ESE,111,0.0,0.0,82,0.00,,,0.00,,2013-03-08 10:21:00,
2013-03-08 04:31:00,29.0,24.0,30.42,ESE,111,0.0,0.0,82,0.00,,,0.00,,2013-03-08 10:31:00,
2013-03-08 04:41:00,29.0,24.0,30.42,ESE,111,0.0,0.0,82,0.00,,,0.00,,2013-03-08 10:41:00,
2013-03-08 04:52:00,28.0,23.0,30.43,ESE,111,0.0,0.0,81,0.00,,,0.00,,2013-03-08 10:52:00,
2013-03-08 05:01:00,28.0,23.0,30.43,ESE,111,0.0,0.0,81,0.00,,,0.00,,2013-03-08 11:01:00,
2013-03-08 05:11:00,28.0,23.0,30.43,ESE,111,0.0,0.0,81,0.00,,,0.00,,2013-03-08 11:11:00,
2013-03-08 05:21:00,28.0,23.0,30.43,ESE,111,0.0,0.0,82,0.00,,,0.00,,2013-03-08 11:21:00,
2013-03-08 05:32:00,28.0,23.0,30.43,ESE,111,0.0,0.0,82,0.00,,,0.00,,2013-03-08 11:32:00,
2013-03-08 05:42:00,28.0,23.0,30.43,ESE,111,0.0,0.0,82,0.00,,,0.00,,2013-03-08 11:42:00,
2013-03-08 05:52:00,28.0,23.0,30.44,ESE,111,0.0,0.0,82,0.00,,,0.00,,2013-03-08 11:52:00,
2013-03-08 06:01:00,28.0,23.0,30.43,ESE,111,0.0,0.0,82,0.00,,,0.00,,2013-03-08 12:01:00,
2013-03-08 06:11:00,28.0,23.0,30.43,ESE,111,0.0,0.0,82,0.00,,,0.00,,2013-03-08 12:11:00,
2013-03-08 06:22:00,28.0,23.0,30.44,ESE,111,0.0,0.0,82,0.00,,,0.00,,2013-03-08 12:22:00,
2013-03-08 06:32:00,28.0,23.0,30.44,ESE,111,0.0,0.0,82,0.00,,,0.00,,2013-03-08 12:32:00,
2013-03-08 06:43:00,28.0,23.0,30.44,ESE,111,0.0,0.0,82,0.00,,,0.00,,2013-03-08 12:43:00,
2013-03-08 06:53:00,28.0,24.0,30.45,ESE,111,0.0,0.0,83,0.00,,,0.00,,2013-03-08 12:53:00,
2013-03-08 07:01:00,29.0,25.0,30.44,ESE,111,0.0,0.0,83,0.00,,,0.00,,2013-03-08 13:01:00,
2013-03-08 07:11:00,29.0,25.0,30.44,ESE,111,0.0,0.0,83,0.00,,,0.00,,2013-03-08 13:11:00,
2013-03-08 07:21:00,30.0,25.0,30.44,ESE,109,0.0,0.0,82,0.00,,,0.00,,2013-03-08 13:21:00,
2013-03-08 07:32:00,31.0,26.0,30.45,ESE,121,0.0,0.0,81,0.00,,,0.00,,2013-03-08 13:32:00,
2013-03-08 07:42:00,31.0,26.0,30.45,ESE,121,0.0,0.0,81,0.00,,,0.00,,2013-03-08 13:42:00,
2013-03-08 07:52:00,33.0,27.0,30.45,ESE,118,0.0,0.0,79,0.00,,,0.00,,2013-03-08 13:52:00,
2013-03-08 08:02:00,34.0,28.0,30.45,ESE,119,0.0,0.0,78,0.00,,,0.00,,2013-03-08 14:02:00,
2013-03-08 08:11:00,34.0,28.0,30.45,ESE,119,0.0,0.0,78,0.00,,,0.00,,2013-03-08 14:11:00,
2013-03-08 08:22:00,35.0,28.0,30.45,ESE,123,0.0,0.0,75,0.00,,,0.00,,2013-03-08 14:22:00,
2013-03-08 08:32:00,35.0,28.0,30.45,SE,128,0.0,0.0,74,0.00,,,0.00,,2013-03-08 14:32:00,
2013-03-08 08:42:00,35.0,28.0,30.45,SE,128,0.0,0.0,74,0.00,,,0.00,,2013-03-08 14:42:00,
2013-03-08 08:52:00,36.0,28.0,30.45,SE,136,0.0,0.0,73,0.00,,,0.00,,2013-03-08 14:52:00,
2013-03-08 09:02:00,36.0,28.0,30.45,SE,135,0.0,0.0,73,0.00,,,0.00,,2013-03-08 15:02:00,
2013-03-08 09:11:00,37.0,29.0,30.45,SE,138,0.0,0.0,74,0.00,,,0.00,,2013-03-08 15:11:00,
2013-03-08 09:22:00,37.0,29.0,30.45,SE,138,0.0,0.0,74,0.00,,,0.00,,2013-03-08 15:22:00,
2013-03-08 09:32:00,37.0,30.0,30.46,SE,146,0.0,0.0,75,0.00,,,0.00,,2013-03-08 15:32:00,
2013-03-08 09:42:00,37.0,30.0,30.46,SE,146,0.0,0.0,75,0.00,,,0.00,,2013-03-08 15:42:00,
2013-03-08 09:53:00,38.0,30.0,30.45,SE,146,0.0,0.0,72,0.00,,,0.00,,2013-03-08 15:53:00,
2013-03-08 10:01:00,39.0,31.0,30.46,SSE,155,0.0,0.0,72,0.00,,,0.00,,2013-03-08 16:01:00,
2013-03-08 10:11:00,39.0,31.0,30.46,SSE,155,0.0,0.0,72,0.00,,,0.00,,2013-03-08 16:11:00,
2013-03-08 10:21:00,40.0,31.0,30.46,SE,135,0.0,0.0,70,0.00,,,0.00,,2013-03-08 16:21:00,
2013-03-08 10:32:00,40.0,31.0,30.46,SSE,167,0.0,0.0,70,0.00,,,0.00,,2013-03-08 16:32:00,
2013-03-08 10:42:00,40.0,31.0,30.46,SSE,167,0.0,0.0,70,0.00,,,0.00,,2013-03-08 16:42:00,
2013-03-08 10:52:00,41.0,32.0,30.46,SE,143,0.0,0.0,69,0.00,,,0.00,,2013-03-08 16:52:00,
2013-03-08 11:02:00,42.0,33.0,30.46,SE,139,0.0,0.0,69,0.00,,,0.00,,2013-03-08 17:02:00,
2013-03-08 11:11:00,42.0,33.0,30.46,SE,139,0.0,0.0,69,0.00,,,0.00,,2013-03-08 17:11:00,
2013-03-08 11:21:00,43.0,32.0,30.45,SSE,150,0.0,0.0,66,0.00,,,0.00,,2013-03-08 17:21:00,
2013-03-08 11:32:00,43.0,32.0,30.44,SE,142,0.0,0.0,65,0.00,,,0.00,,2013-03-08 17:32:00,
2013-03-08 11:42:00,43.0,32.0,30.44,SE,142,0.0,0.0,65,0.00,,,0.00,,2013-03-08 17:42:00,
2013-03-08 11:52:00,44.0,33.0,30.43,SSE,150,0.0,0.0,66,0.00,,,0.00,,2013-03-08 17:52:00,
2013-03-08 12:02:00,45.0,35.0,30.43,SE,140,0.0,0.0,68,0.00,,,0.00,,2013-03-08 18:02:00,
2013-03-08 12:11:00,45.0,35.0,30.43,SE,140,0.0,0.0,68,0.00,,,0.00,,2013-03-08 18:11:00,
2013-03-08 12:21:00,44.0,33.0,30.42,SE,136,0.0,0.0,66,0.00,,,0.00,,2013-03-08 18:21:00,
2013-03-08 12:32:00,45.0,35.0,30.42,SE,145,0.0,0.0,67,0.00,,,0.00,,2013-03-08 18:32:00,
2013-03-08 12:42:00,45.0,35.0,30.42,SE,145,0.0,0.0,67,0.00,,,0.00,,2013-03-08 18:42:00,
2013-03-08 12:52:00,46.0,36.0,30.40,SSE,158,0.0,0.0,68,0.00,,,0.00,,2013-03-08 18:52:00,
2013-03-08 13:01:00,46.0,37.0,30.39,SE,132,0.0,0.0,71,0.00,,,0.00,,2013-03-08 19:01:00,
2013-03-08 13:11:00,46.0,37.0,30.39,SE,132,0.0,0.0,71,0.00,,,0.00,,2013-03-08 19:11:00,
2013-03-08 13:22:00,47.0,37.0,30.37,SE,137,0.0,0.0,67,0.00,,,0.00,,2013-03-08 19:22:00,
2013-03-08 13:32:00,47.0,36.0,30.36,SE,127,0.0,0.0,66,0.00,,,0.00,,2013-03-08 19:32:00,
2013-03-08 13:41:00,47.0,36.0,30.36,SE,127,0.0,0.0,66,0.00,,,0.00,,2013-03-08 19:41:00,
2013-03-08 13:52:00,47.0,36.0,30.36,ESE,115,0.0,0.0,66,0.00,,,0.00,,2013-03-08 19:52:00,
2013-03-08 14:01:00,47.0,36.0,30.35,SE,138,0.0,0.0,66,0.00,,,0.00,,2013-03-08 20:01:00,
2013-03-08 14:11:00,47.0,36.0,30.35,SE,138,0.0,0.0,66,0.00,,,0.00,,2013-03-08 20:11:00,
2013-03-08 14:21:00,47.0,36.0,30.35,SE,131,0.0,0.0,66,0.00,,,0.00,,2013-03-08 20:21:00,
2013-03-08 14:32:00,48.0,37.0,30.35,SE,134,0.0,0.0,65,0.00,,,0.00,,2013-03-08 20:32:00,
2013-03-08 14:42:00,48.0,37.0,30.35,SE,134,0.0,0.0,65,0.00,,,0.00,,2013-03-08 20:42:00,
2013-03-08 14:53:00,48.0,37.0,30.34,ESE,123,0.0,0.0,66,0.00,,,0.00,,2013-03-08 20:53:00,
2013-03-08 15:02:00,48.0,37.0,30.35,SE,144,0.0,0.0,66,0.00,,,0.00,,2013-03-08 21:02:00,
2013-03-08 15:11:00,48.0,37.0,30.35,SE,144,0.0,0.0,66,0.00,,,0.00,,2013-03-08 21:11:00,
2013-03-08 15:21:00,49.0,37.0,30.34,SE,137,0.0,0.0,62,0.00,,,0.00,,2013-03-08 21:21:00,
2013-03-08 15:32:00,49.0,37.0,30.33,ESE,113,0.0,0.0,63,0.00,,,0.00,,2013-03-08 21:32:00,
2013-03-08 15:42:00,49.0,37.0,30.33,ESE,113,0.0,0.0,63,0.00,,,0.00,,2013-03-08 21:42:00,
2013-03-08 15:52:00,49.0,37.0,30.33,SSE,149,0.0,0.0,63,0.00,,,0.00,,2013-03-08 21:52:00,
2013-03-08 16:01:00,48.0,36.0,30.33,ESE,107,0.0,0.0,63,0.00,,,0.00,,2013-03-08 22:01:00,
2013-03-08 16:11:00,48.0,36.0,30.33,ESE,107,0.0,0.0,63,0.00,,,0.00,,2013-03-08 22:11:00,
2013-03-08 16:22:00,48.0,37.0,30.33,SE,130,0.0,0.0,66,0.00,,,0.00,,2013-03-08 22:22:00,
2013-03-08 16:32:00,48.0,36.0,30.33,SE,144,0.0,0.0,63,0.00,,,0.00,,2013-03-08 22:32:00,
2013-03-08 16:42:00,48.0,36.0,30.33,SE,144,0.0,0.0,63,0.00,,,0.00,,2013-03-08 22:42:00,
2013-03-08 16:52:00,47.0,36.0,30.34,SE,140,0.0,0.0,65,0.00,,,0.00,,2013-03-08 22:52:00,
2013-03-08 17:01:00,47.0,36.0,30.34,SE,140,0.0,0.0,65,0.00,,,0.00,,2013-03-08 23:01:00,
2013-03-08 17:11:00,47.0,36.0,30.34,SE,140,0.0,0.0,65,0.00,,,0.00,,2013-03-08 23:11:00,
2013-03-08 17:21:00,47.0,37.0,30.34,SE,127,0.0,0.0,68,0.00,,,0.00,,2013-03-08 23:21:00,
2013-03-08 17:32:00,46.0,36.0,30.34,SE,131,0.0,0.0,69,0.00,,,0.00,,2013-03-08 23:32:00,
2013-03-08 17:42:00,46.0,36.0,30.34,SE,131,0.0,0.0,69,0.00,,,0.00,,2013-03-08 23:42:00,
2013-03-08 17:53:00,44.0,36.0,30.34,ESE,117,0.0,0.0,72,0.00,,,0.00,,2013-03-08 23:53:00,
2013-03-08 18:02:00,43.0,35.0,30.34,ESE,115,0.0,0.0,74,0.00,,,0.00,,2013-03-09 00:02:00,
2013-03-08 18:11:00,43.0,35.0,30.34,ESE,115,0.0,0.0,74,0.00,,,0.00,,2013-03-09 00:11:00,
2013-03-08 18:22:00,41.0,34.0,30.34,East,101,0.0,0.0,77,0.00,,,0.00,,2013-03-09 00:22:00,
2013-03-08 18:32:00,41.0,34.0,30.33,ESE,103,0.0,0.0,77,0.00,,,0.00,,2013-03-09 00:32:00,
2013-03-08 18:42:00,41.0,34.0,30.33,ESE,103,0.0,0.0,77,0.00,,,0.00,,2013-03-09 00:42:00,
2013-03-08 18:52:00,40.0,34.0,30.33,East,96,0.0,0.0,79,0.00,,,0.00,,2013-03-09 00:52:00,
2013-03-08 19:01:00,40.0,34.0,30.33,East,97,0.0,0.0,80,0.00,,,0.00,,2013-03-09 01:01:00,
2013-03-08 19:12:00,40.0,34.0,30.32,ESE,102,0.0,0.0,80,0.00,,,0.00,,2013-03-09 01:12:00,
2013-03-08 19:21:00,40.0,34.0,30.32,ESE,102,0.0,0.0,80,0.00,,,0.00,,2013-03-09 01:21:00,
2013-03-08 19:32:00,40.0,34.0,30.32,ESE,109,0.0,0.0,80,0.00,,,0.00,,2013-03-09 01:32:00,
2013-03-08 19:42:00,40.0,34.0,30.32,ESE,109,0.0,0.0,80,0.00,,,0.00,,2013-03-09 01:42:00,
2013-03-08 19:52:00,40.0,34.0,30.32,ESE,102,0.0,0.0,80,0.00,,,0.00,,2013-03-09 01:52:00,
2013-03-08 20:01:00,40.0,34.0,30.32,ESE,108,0.0,0.0,80,0.00,,,0.00,,2013-03-09 02:01:00,
2013-03-08 20:11:00,40.0,34.0,30.32,ESE,108,0.0,0.0,80,0.00,,,0.00,,2013-03-09 02:11:00,
2013-03-08 20:21:00,39.0,33.0,30.31,ESE,118,0.0,0.0,79,0.00,,,0.00,,2013-03-09 02:21:00,
2013-03-08 20:31:00,39.0,33.0,30.31,ESE,103,0.0,0.0,79,0.00,,,0.00,,2013-03-09 02:31:00,
2013-03-08 20:41:00,39.0,33.0,30.30,ESE,104,0.0,0.0,78,0.00,,,0.00,,2013-03-09 02:41:00,
2013-03-08 20:51:00,39.0,33.0,30.30,ESE,104,0.0,0.0,78,0.00,,,0.00,,2013-03-09 02:51:00,
2013-03-08 21:01:00,39.0,33.0,30.30,ESE,105,0.0,0.0,78,0.00,,,0.00,,2013-03-09 03:01:00,
2013-03-08 21:11:00,39.0,33.0,30.30,ESE,105,0.0,0.0,78,0.00,,,0.00,,2013-03-09 03:11:00,
2013-03-08 21:21:00,39.0,32.0,30.30,ESE,107,0.0,0.0,77,0.00,,,0.00,,2013-03-09 03:21:00,
2013-03-08 21:31:00,39.0,32.0,30.29,East,100,0.0,0.0,77,0.00,,,0.00,,2013-03-09 03:31:00,
2013-03-08 21:41:00,39.0,32.0,30.29,East,100,0.0,0.0,77,0.00,,,0.00,,2013-03-09 03:41:00,
2013-03-08 21:52:00,39.0,32.0,30.29,ESE,109,0.0,0.0,77,0.00,,,0.00,,2013-03-09 03:52:00,
2013-03-08 22:01:00,40.0,33.0,30.29,SE,128,0.0,0.0,75,0.00,,,0.00,,2013-03-09 04:01:00,
2013-03-08 22:11:00,40.0,33.0,30.29,SE,128,0.0,0.0,75,0.00,,,0.00,,2013-03-09 04:11:00,
2013-03-08 22:22:00,40.0,32.0,30.29,SE,137,0.0,0.0,73,0.00,,,0.00,,2013-03-09 04:22:00,
2013-03-08 22:32:00,40.0,32.0,30.29,SE,128,0.0,0.0,73,0.00,,,0.00,,2013-03-09 04:32:00,
2013-03-08 22:41:00,40.0,32.0,30.29,SE,128,0.0,0.0,73,0.00,,,0.00,,2013-03-09 04:41:00,
2013-03-08 22:52:00,40.0,32.0,30.29,SE,137,0.0,0.0,74,0.00,,,0.00,,2013-03-09 04:52:00,
2013-03-08 23:02:00,39.0,32.0,30.28,SE,140,0.0,0.0,75,0.00,,,0.00,,2013-03-09 05:02:00,
2013-03-08 23:12:00,39.0,32.0,30.28,SE,140,0.0,0.0,75,0.00,,,0.00,,2013-03-09 05:12:00,
2013-03-08 23:22:00,39.0,32.0,30.26,ESE,111,0.0,0.0,75,0.00,,,0.00,,2013-03-09 05:22:00,
2013-03-08 23:31:00,39.0,31.0,30.26,ESE,113,0.0,0.0,74,0.00,,,0.00,,2013-03-09 05:31:00,
2013-03-08 23:42:00,39.0,31.0,30.26,ESE,113,0.0,0.0,74,0.00,,,0.00,,2013-03-09 05:42:00,
2013-03-08 23:53:00,40.0,32.0,30.25,ESE,117,0.0,0.0,73,0.00,,,0.00,,2013-03-09 05:53:00,